| time (UTC) | temp F | wind direction | speed MPH | gust MPH | rain 1hr in | rain 24hr in | rain mn in | humidity % | barometer mb |
| 20260904140040 | 79 | 188 | 8.0 | 12.0 | 0.00 | 0.00 | 0.00 | 92 | 1011.2 |
| 20260904134533 | 78 | 177 | 6.0 | 13.0 | 0.00 | 0.00 | 0.00 | 93 | 1011.0 |
| 20260904133030 | 78 | 169 | 8.0 | 13.0 | 0.00 | 0.00 | 0.00 | 94 | 1010.9 |
| 20260904131627 | 77 | 158 | 8.0 | 14.0 | 0.00 | 0.00 | 0.00 | 94 | 1010.6 |
| 20260904130027 | 77 | 167 | 7.0 | 13.0 | 0.00 | 0.00 | 0.00 | 94 | 1010.4 |
| 20260904124525 | 77 | 167 | 5.0 | 12.0 | 0.00 | 0.00 | 0.00 | 95 | 1010.2 |
| 20260904123024 | 77 | 150 | 5.0 | 11.0 | 0.00 | 0.00 | 0.00 | 95 | 1010.0 |
| 20260904121523 | 77 | 166 | 4.0 | 13.0 | 0.00 | 0.00 | 0.00 | 95 | 1010.1 |
| 20260904120032 | 77 | 194 | 4.0 | 9.0 | 0.00 | 0.00 | 0.00 | 96 | 1009.9 |
| 20260904114522 | 77 | 148 | 6.0 | 11.0 | 0.00 | 0.00 | 0.00 | 96 | 1009.7 |
| 20260904113020 | 76 | 179 | 5.0 | 9.0 | 0.00 | 0.00 | 0.00 | 95 | 1009.7 |
| 20260904111522 | 76 | 207 | 5.0 | 8.0 | 0.00 | 0.00 | 0.00 | 95 | 1009.4 |
| 20260904110019 | 76 | 183 | 1.0 | 5.0 | 0.00 | 0.00 | 0.00 | 95 | 1009.2 |
| 20260904104518 | 76 | 188 | 3.0 | 6.0 | 0.00 | 0.00 | 0.00 | 95 | 1009.0 |
| 20260904103017 | 76 | 169 | 3.0 | 7.0 | 0.00 | 0.00 | 0.00 | 95 | 1008.9 |
| 20260904101521 | 76 | 187 | 4.0 | 8.0 | 0.00 | 0.00 | 0.00 | 94 | 1008.8 |
| 20260904100016 | 76 | 174 | 2.0 | 7.0 | 0.00 | 0.00 | 0.00 | 94 | 1008.7 |
| 20260904094515 | 76 | 180 | 6.0 | 10.0 | 0.00 | 0.00 | 0.00 | 94 | 1008.7 |
| 20260904093014 | 76 | 174 | 4.0 | 10.0 | 0.00 | 0.00 | 0.00 | 94 | 1008.7 |
| 20260904091518 | 76 | 188 | 4.0 | 10.0 | 0.00 | 0.00 | 0.00 | 94 | 1008.7 |
| 20260904090021 | 76 | 182 | 6.0 | 11.0 | 0.00 | 0.00 | 0.00 | 95 | 1008.9 |
| 20260904084510 | 76 | 165 | 6.0 | 11.0 | 0.00 | 0.00 | 0.00 | 94 | 1008.9 |
| 20260904083008 | 76 | 197 | 4.0 | 11.0 | 0.00 | 0.00 | 0.00 | 94 | 1009.0 |
| 20260904081507 | 76 | 142 | 5.0 | 11.0 | 0.00 | 0.00 | 0.00 | 94 | 1009.1 |
| 20260904080005 | 77 | 177 | 6.0 | 11.0 | 0.00 | 0.00 | 0.00 | 94 | 1009.3 |
| 20260904074502 | 77 | 220 | 2.0 | 11.0 | 0.00 | 0.00 | 0.00 | 94 | 1009.6 |
| 20260904073108 | 77 | 210 | 6.0 | 10.0 | 0.00 | 0.00 | 0.00 | 94 | 1009.8 |
| 20260904071602 | 77 | 200 | 4.0 | 9.0 | 0.00 | 0.00 | 0.00 | 93 | 1010.0 |
| 20260904070100 | 77 | 200 | 4.0 | 10.0 | 0.00 | 0.00 | 0.00 | 93 | 1010.1 |
| 20260904064553 | 77 | 156 | 4.0 | 8.0 | 0.00 | 0.00 | 0.00 | 93 | 1010.2 |
| 20260904063110 | 77 | 172 | 1.0 | 8.0 | 0.00 | 0.00 | 0.00 | 93 | 1010.5 |
| 20260904061548 | 77 | 164 | 4.0 | 8.0 | 0.00 | 0.00 | 0.00 | 92 | 1010.7 |
| 20260904060050 | 77 | 213 | 0.0 | 6.0 | 0.00 | 0.00 | 0.00 | 92 | 1010.8 |
| 20260904054549 | 77 | 203 | 1.0 | 7.0 | 0.00 | 0.00 | 0.00 | 92 | 1010.9 |
| 20260904053057 | 77 | 166 | 3.0 | 7.0 | 0.00 | 0.00 | 0.00 | 92 | 1011.1 |
| 20260904051544 | 77 | 211 | 2.0 | 7.0 | 0.00 | 0.00 | 0.00 | 92 | 1011.2 |
| 20260904050043 | 77 | 188 | 4.0 | 9.0 | 0.00 | 0.00 | 0.00 | 92 | 1011.3 |
| 20260904044543 | 77 | 189 | 3.0 | 7.0 | 0.00 | 0.00 | 0.00 | 92 | 1011.6 |
| 20260904043053 | 77 | 161 | 3.0 | 6.0 | 0.00 | 0.00 | 0.00 | 91 | 1011.8 |
| 20260904041541 | 77 | 164 | 4.0 | 7.0 | 0.00 | 0.00 | 0.00 | 91 | 1011.6 |
| 20260904040042 | 78 | 201 | 4.0 | 6.0 | 0.00 | 0.00 | 0.00 | 90 | 1011.7 |
| 20260904034539 | 77 | 174 | 1.0 | 5.0 | 0.00 | 0.00 | 0.00 | 89 | 1011.5 |
| 20260904033037 | 77 | 178 | 1.0 | 6.0 | 0.00 | 0.00 | 0.00 | 90 | 1011.5 |
| 20260904031536 | 77 | 191 | 2.0 | 8.0 | 0.00 | 0.00 | 0.00 | 90 | 1011.5 |
| 20260904030052 | 77 | 137 | 2.0 | 6.0 | 0.00 | 0.00 | 0.00 | 91 | 1011.5 |
| 20260904024536 | 78 | 196 | 4.0 | 7.0 | 0.00 | 0.00 | 0.00 | 90 | 1011.4 |
| 20260904023036 | 77 | 158 | 4.0 | 6.0 | 0.00 | 0.00 | 0.00 | 90 | 1011.3 |
| 20260904021549 | 77 | 162 | 0.0 | 5.0 | 0.00 | 0.00 | 0.00 | 91 | 1011.2 |
| 20260904020035 | 77 | 167 | 4.0 | 11.0 | 0.00 | 0.00 | 0.00 | 91 | 1011.2 |
| 20260904014537 | 78 | 168 | 3.0 | 10.0 | 0.00 | 0.00 | 0.00 | 91 | 1011.0 |
| 20260904013034 | 78 | 191 | 5.0 | 10.0 | 0.00 | 0.00 | 0.00 | 91 | 1010.9 |
| 20260904011532 | 78 | 207 | 6.0 | 12.0 | 0.00 | 0.00 | 0.00 | 91 | 1010.8 |
| 20260904010032 | 78 | 184 | 6.0 | 11.0 | 0.00 | 0.00 | 0.00 | 91 | 1010.7 |
| 20260904004531 | 78 | 165 | 5.0 | 10.0 | 0.00 | 0.00 | 0.00 | 90 | 1010.5 |
| 20260904003034 | 78 | 167 | 2.0 | 8.0 | 0.00 | 0.00 | 0.00 | 91 | 1010.3 |
| 20260904001530 | 78 | 149 | 3.0 | 7.0 | 0.00 | 0.00 | 0.00 | 91 | 1010.3 |
| 20260904000030 | 78 | 205 | 5.0 | 9.0 | 0.00 | 0.00 | 0.00 | 90 | 1010.1 |
| 20260903234528 | 78 | 207 | 4.0 | 10.0 | 0.00 | 0.00 | 0.00 | 90 | 1009.8 |
| 20260903233035 | 79 | 185 | 7.0 | 10.0 | 0.00 | 0.00 | 0.00 | 90 | 1009.7 |
| 20260903231539 | 79 | 167 | 6.0 | 11.0 | 0.00 | 0.00 | 0.00 | 89 | 1009.5 |
| 20260903230030 | 79 | 203 | 8.0 | 11.0 | 0.00 | 0.00 | 0.00 | 90 | 1009.3 |
| 20260903224533 | 79 | 186 | 5.0 | 12.0 | 0.00 | 0.00 | 0.00 | 90 | 1009.4 |
| 20260903223025 | 79 | 219 | 7.0 | 12.0 | 0.00 | 0.00 | 0.00 | 89 | 1009.5 |
| 20260903221524 | 79 | 170 | 8.0 | 13.0 | 0.00 | 0.00 | 0.00 | 90 | 1009.4 |
| 20260903220034 | 79 | 207 | 6.0 | 13.0 | 0.00 | 0.00 | 0.00 | 89 | 1009.4 |
| 20260903214523 | 79 | 163 | 7.0 | 13.0 | 0.00 | 0.00 | 0.00 | 89 | 1009.4 |
| 20260903213020 | 79 | 181 | 8.0 | 14.0 | 0.00 | 0.00 | 0.00 | 88 | 1009.4 |
| 20260903211523 | 79 | 165 | 6.0 | 13.0 | 0.00 | 0.00 | 0.00 | 88 | 1009.6 |
| 20260903210019 | 80 | 207 | 8.0 | 14.0 | 0.00 | 0.00 | 0.00 | 87 | 1009.7 |
| 20260903204518 | 80 | 154 | 8.0 | 14.0 | 0.00 | 0.00 | 0.00 | 86 | 1009.8 |
| 20260903203016 | 81 | 180 | 5.0 | 15.0 | 0.00 | 0.00 | 0.00 | 88 | 1009.9 |
| 20260903201516 | 81 | 187 | 9.0 | 16.0 | 0.00 | 0.00 | 0.00 | 88 | 1010.1 |
| 20260903200015 | 80 | 184 | 9.0 | 16.0 | 0.00 | 0.00 | 0.00 | 87 | 1010.2 |
| 20260903194514 | 80 | 134 | 10.0 | 14.0 | 0.00 | 0.00 | 0.00 | 89 | 1010.5 |
| 20260903193016 | 80 | 164 | 8.0 | 15.0 | 0.00 | 0.00 | 0.00 | 89 | 1010.7 |
| 20260903191526 | 81 | 165 | 8.0 | 14.0 | 0.00 | 0.00 | 0.00 | 87 | 1011.0 |
| 20260903190011 | 81 | 217 | 9.0 | 15.0 | 0.00 | 0.00 | 0.00 | 88 | 1011.2 |
| 20260903184511 | 81 | 211 | 8.0 | 17.0 | 0.00 | 0.00 | 0.00 | 88 | 1011.4 |
| 20260903183009 | 81 | 221 | 10.0 | 17.0 | 0.00 | 0.00 | 0.00 | 87 | 1011.6 |
| 20260903181507 | 81 | 145 | 10.0 | 17.0 | 0.00 | 0.00 | 0.00 | 89 | 1011.7 |
| 20260903180012 | 81 | 197 | 11.0 | 17.0 | 0.00 | 0.00 | 0.00 | 88 | 1011.9 |
| 20260903174514 | 81 | 165 | 10.0 | 17.0 | 0.00 | 0.00 | 0.00 | 87 | 1012.0 |
| 20260903173004 | 81 | 167 | 8.0 | 16.0 | 0.00 | 0.00 | 0.00 | 88 | 1012.2 |
| 20260903171502 | 81 | 151 | 11.0 | 16.0 | 0.00 | 0.00 | 0.00 | 88 | 1012.5 |
| 20260903170003 | 80 | 193 | 10.0 | 17.0 | 0.00 | 0.00 | 0.00 | 88 | 1012.6 |
| 20260903164502 | 79 | 191 | 8.0 | 15.0 | 0.00 | 0.00 | 0.00 | 90 | 1012.7 |
| 20260903163101 | 80 | 156 | 7.0 | 13.0 | 0.00 | 0.00 | 0.00 | 88 | 1012.8 |
| 20260903161601 | 80 | 181 | 5.0 | 14.0 | 0.00 | 0.00 | 0.00 | 89 | 1012.9 |
| 20260903160058 | 80 | 148 | 9.0 | 17.0 | 0.00 | 0.00 | 0.00 | 89 | 1012.9 |
| 20260903154556 | 79 | 173 | 3.0 | 13.0 | 0.00 | 0.00 | 0.00 | 92 | 1013.1 |
| 20260903153106 | 79 | 169 | 7.0 | 14.0 | 0.00 | 0.00 | 0.00 | 90 | 1013.1 |
| 20260903151607 | 79 | 143 | 7.0 | 12.0 | 0.00 | 0.00 | 0.00 | 90 | 1013.2 |
| 20260903150059 | 78 | 179 | 7.0 | 13.0 | 0.00 | 0.00 | 0.00 | 90 | 1013.0 |
| 20260903144551 | 78 | 197 | 7.0 | 13.0 | 0.00 | 0.00 | 0.00 | 91 | 1012.8 |
| 20260903143048 | 78 | 163 | 7.0 | 15.0 | 0.00 | 0.00 | 0.00 | 92 | 1012.8 |
| 20260903141547 | 78 | 143 | 8.0 | 14.0 | 0.00 | 0.00 | 0.00 | 92 | 1012.6 |